[[{"header":{"parameterUnit":"m.s-1","parameterCategory":1,"la1":30.2991,"la2":30.254,"lo1":-89.0895,"lo2":-89.0444,"dy":0.0017,"dx":0.0017,"nx":28,"ny":28,"refTime":"2024-03-22T21:00:00:Z","depth":0,"parameterNumber":2,"parameterNumberName":"U-component_of_WINDS"},"data":[0,0,0,0,0,0,0,0,0,0,0,0,0,0,0,0,0,0,0,0,0,0,0,0,0,0,0,0,0,0,0,0,0,0,0,0,0,0,0,0,0,0,0,0,0,0,0,0,0,0,0,0,0,0,0,0,0,0,3.688,3.688,0,3.6907,3.6908,3.6908,3.6848,3.6846,3.6844,3.6842,3.687,3.6873,3.6875,0,0,0,0,0,0,0,0,0,0,0,0,0,3.6776,3.6778,3.6879,3.688,3.688,3.6907,3.6908,3.6908,3.6848,3.6846,3.6844,3.6841,3.6869,3.6872,3.6876,0,0,0,0,0,0,0,0,0,0,0,0,0,3.6814,3.6779,3.6879,3.6854,3.6852,3.6907,3.6908,3.6908,3.6849,3.6846,3.6843,3.684,3.6868,3.6872,3.6876,3.6957,0,0,3.6888,3.6889,0,0,0,0,0,0,0,0,3.6812,3.6818,3.6857,3.6856,3.6853,3.6871,3.6881,3.6925,3.685,3.685,3.6842,3.6839,3.6873,3.6876,3.6888,3.6959,3.696,3.6888,3.689,3.6892,3.6893,0,0,0,0,0,0,0,3.6809,3.6816,3.689,3.6858,3.6856,3.6841,3.6843,3.6889,3.6877,3.685,3.6845,3.685,3.6871,3.6884,3.6888,3.696,3.6888,3.6891,3.6894,3.6895,3.7102,3.7105,0,0,0,0,0,0,3.681,3.6814,3.689,3.6891,3.6825,3.6845,3.6848,3.6868,3.6877,3.6875,3.6852,3.6847,3.6879,3.6884,3.6889,3.6986,3.6892,3.6895,3.6898,3.7098,3.7102,3.7106,0,0,0,0,0,0,3.6808,3.6817,3.6888,3.6852,3.686,3.685,3.6874,3.6871,3.6883,3.6878,3.6876,3.6867,3.6877,3.6883,3.6941,3.6986,3.6897,3.6901,3.7095,3.71,3.7104,3.718,0,0,0,0,0,0,3.6805,3.6817,3.6847,3.6853,3.6862,3.694,3.6877,3.6873,3.689,3.6883,3.6892,3.6891,3.6875,3.6936,3.6945,3.6989,3.6904,3.7091,3.7097,3.7102,3.7173,3.7187,3.7198,0,0,0,0,0,3.6802,3.6867,3.6849,3.6858,3.69,3.6943,3.6948,3.6929,3.6894,3.6925,3.6922,3.689,3.698,3.6942,3.6952,3.6998,3.7088,3.7095,3.7102,3.7168,3.7184,3.7198,0,0,0,0,0,0,3.6866,3.6867,3.6847,3.6916,3.693,3.6933,3.6971,3.6947,3.6971,3.6963,3.6938,3.6941,3.7004,3.7007,3.6965,3.7079,3.7028,3.7037,3.7074,3.709,3.7102,3.71,3.6907,0,0,0,0,0,3.6889,3.6924,3.6922,3.6984,3.6992,3.6981,3.6999,3.6983,3.6996,3.7002,3.7003,3.7017,3.7048,3.7069,3.7097,3.7174,3.7175,3.721,3.7223,3.7233,3.7241,3.7283,3.7299,3.7129,3.7129,3.7129,0,0,3.6935,3.694,3.6963,3.6997,3.7006,3.7043,3.6986,3.7027,3.7055,3.7008,3.7063,3.7065,3.7078,3.7146,3.7176,3.7151,3.7289,3.7242,3.725,3.7253,3.7292,3.7308,3.7323,3.7134,3.7133,3.7132,0,0,3.7038,3.7046,3.7098,3.7108,3.7123,3.7115,3.7128,3.7135,3.7134,3.7189,3.7156,3.7188,3.7242,3.7254,3.7267,3.7378,3.735,3.7388,3.7452,3.7493,3.7507,3.7518,3.7559,3.7573,3.7396,3.7396,3.7396,0,3.7094,3.7149,3.7128,3.7172,3.7188,3.7149,3.7202,3.7213,3.7236,3.7248,3.7219,3.7288,3.7294,3.7365,3.7392,3.7404,3.7418,3.7386,3.7506,3.7518,3.7529,3.7567,3.7582,3.7401,3.74,3.74,3.7399,0,3.7217,3.7256,3.7296,3.732,3.7341,3.739,3.7377,3.74,3.7384,3.738,3.7437,3.7444,3.7473,3.7489,3.7473,3.7558,3.7542,3.751,3.7459,3.755,3.7585,3.7599,3.7407,3.7406,3.7404,3.7403,0,0,3.7361,3.7374,3.7389,3.74,3.7414,3.7444,3.7491,3.7521,3.7542,3.756,3.7599,3.7647,3.7618,3.7634,3.7618,3.7654,3.7743,3.7618,3.7618,3.7642,3.7839,3.7863,3.788,3.7725,3.7728,3.773,3.7838,0,3.7464,3.7545,3.7529,3.7609,3.7645,3.7609,3.765,3.7664,3.7662,3.7692,3.7689,3.7724,3.7683,3.7692,3.7726,3.7725,3.7782,3.7717,3.7762,3.7764,3.7759,3.7898,3.7923,3.8025,3.7851,3.7854,3.7855,0,3.7594,3.7618,3.7702,3.7712,3.7726,3.7764,3.7791,3.782,3.7835,3.7831,3.7849,3.7828,3.7875,3.7824,3.789,3.7846,3.7863,3.7866,3.7869,3.7873,3.7815,3.7906,3.8056,3.8072,3.7877,3.7875,3.7874,0,3.7692,3.7745,3.7802,3.7812,3.7825,3.7853,3.7859,3.7871,3.7891,3.7914,3.7927,3.7956,3.7971,3.7994,3.7981,3.7945,3.805,3.7997,3.8049,3.8049,3.8072,3.8071,3.8228,3.8084,3.8083,3.8083,3.8083,0,3.7808,3.7861,3.7846,3.7881,3.794,3.7921,3.798,3.7982,3.7994,3.8029,3.8,3.8034,3.8014,3.8047,3.8038,3.8094,3.8102,3.81,3.8097,3.8103,3.8103,3.8114,3.8106,3.8087,3.8086,3.8085,3.8085,0,3.7927,3.7918,3.7979,3.7986,3.799,3.8033,3.8039,3.8073,3.8069,3.8114,3.8124,3.8118,3.8156,3.8145,3.8185,3.8179,3.8251,3.8239,3.8246,3.8243,3.8295,3.8291,3.8465,3.8487,3.8328,3.833,3.8331,0,3.8002,3.8042,3.8054,3.8076,3.8085,3.8121,3.8141,3.8124,3.8146,3.8168,3.8199,3.8234,3.8261,3.8322,3.8322,3.8353,3.8341,3.84,3.8345,3.8351,3.8343,3.834,3.8345,3.8411,3.8413,3.8414,3.8415,0,3.8136,3.8131,3.816,3.819,3.8215,3.8237,3.8257,3.8277,3.8262,3.8288,3.8326,3.8347,3.8389,3.8425,3.8453,3.846,3.8436,3.8433,3.8447,3.8453,3.8456,3.8456,3.8276,3.8429,3.8427,3.8426,3.8426,3.8425,3.8235,3.827,3.8284,3.8319,3.8333,3.8352,3.8384,3.8385,3.8417,3.845,3.8438,3.8482,3.8498,3.8534,3.8545,3.8579,3.8557,3.8576,3.8581,3.8586,3.8593,3.8451,3.8584,3.8584,3.8584,3.8583,3.8583,0,3.8368,3.8377,3.8409,3.8438,3.8466,3.8441,3.8462,3.8487,3.8526,3.8543,3.857,3.8615,3.865,3.8653,3.8685,3.8712,3.8702,3.8722,3.8719,3.8722,3.8611,3.8596,3.873,3.8729,3.8729,3.8729,3.8729,3.8729,3.8441,3.8498,3.8495,3.8559,3.8567,3.861,3.8624,3.8642,3.8655,3.8707,3.8736,3.8738,3.8749,3.8783,3.8814,3.8814,3.8827,3.8851,3.8847,3.8744,3.8729,3.8715,3.8701,3.8854,3.8854,3.8955,3.8956,3.8956]},{"header":{"parameterUnit":"m.s-1","parameterCategory":1,"la1":30.2991,"la2":30.254,"lo1":-89.0895,"lo2":-89.0444,"dy":0.0017,"dx":0.0017,"nx":28,"ny":28,"refTime":"2024-03-22T21:00:00:Z","depth":0,"parameterNumber":3,"parameterNumberName":"V-component_of_WINDS"},"data":[0,0,0,0,0,0,0,0,0,0,0,0,0,0,0,0,0,0,0,0,0,0,0,0,0,0,0,0,0,0,0,0,0,0,0,0,0,0,0,0,0,0,0,0,0,0,0,0,0,0,0,0,0,0,0,0,0,0,-4.3529,-4.3529,0,-4.3612,-4.3613,-4.3614,-4.359,-4.3588,-4.3586,-4.3585,-4.3669,-4.3672,-4.3676,0,0,0,0,0,0,0,0,0,0,0,0,0,-4.3349,-4.3353,-4.3528,-4.353,-4.3531,-4.3612,-4.3613,-4.3614,-4.359,-4.3588,-4.3586,-4.3584,-4.3668,-4.3672,-4.3677,0,0,0,0,0,0,0,0,0,0,0,0,0,-4.3429,-4.3354,-4.3528,-4.3529,-4.3529,-4.3611,-4.3613,-4.3614,-4.3591,-4.3588,-4.3586,-4.3583,-4.3666,-4.3672,-4.3677,-4.3764,0,0,-4.3695,-4.3697,0,0,0,0,0,0,0,0,-4.3425,-4.3436,-4.3527,-4.3529,-4.353,-4.3588,-4.358,-4.3664,-4.3591,-4.3567,-4.3585,-4.3582,-4.3644,-4.3651,-4.3672,-4.3768,-4.3771,-4.3695,-4.3699,-4.3701,-4.3703,0,0,0,0,0,0,0,-4.3419,-4.3432,-4.3561,-4.3529,-4.353,-4.3525,-4.3533,-4.3596,-4.3619,-4.3569,-4.3568,-4.3578,-4.3644,-4.3667,-4.3674,-4.3772,-4.3695,-4.37,-4.3704,-4.3706,-4.3945,-4.3948,0,0,0,0,0,0,-4.3413,-4.3428,-4.3559,-4.3564,-4.347,-4.353,-4.3539,-4.3572,-4.3618,-4.3623,-4.358,-4.3577,-4.3658,-4.3668,-4.3677,-4.3783,-4.3701,-4.3706,-4.371,-4.3942,-4.3946,-4.3949,0,0,0,0,0,0,-4.3409,-4.3425,-4.3555,-4.3496,-4.3512,-4.3536,-4.3572,-4.3575,-4.3598,-4.3626,-4.363,-4.3599,-4.3657,-4.3669,-4.3743,-4.3785,-4.3709,-4.3714,-4.3939,-4.3943,-4.3947,-4.3994,0,0,0,0,0,0,-4.3404,-4.3424,-4.3457,-4.3496,-4.3515,-4.362,-4.3575,-4.3578,-4.3608,-4.3604,-4.3645,-4.365,-4.3656,-4.3735,-4.3749,-4.3792,-4.3719,-4.3935,-4.3941,-4.3946,-4.3989,-4.4,-4.4009,0,0,0,0,0,-4.3398,-4.3466,-4.3458,-4.3474,-4.3557,-4.3622,-4.3633,-4.3639,-4.3611,-4.3645,-4.3664,-4.3648,-4.3778,-4.3742,-4.3758,-4.3804,-4.3932,-4.3939,-4.3945,-4.3985,-4.3998,-4.4009,0,0,0,0,0,0,-4.3429,-4.3471,-4.3463,-4.3546,-4.3581,-4.3618,-4.366,-4.3652,-4.3695,-4.369,-4.3695,-4.3704,-4.378,-4.3799,-4.3758,-4.3891,-4.3851,-4.3861,-4.3876,-4.3888,-4.3898,-4.3892,-4.3723,0,0,0,0,0,-4.3446,-4.3496,-4.3529,-4.3599,-4.3617,-4.3636,-4.3665,-4.3667,-4.3703,-4.3717,-4.3741,-4.3777,-4.3826,-4.3858,-4.3905,-4.3992,-4.4001,-4.4031,-4.4041,-4.4049,-4.4058,-4.4107,-4.4121,-4.397,-4.397,-4.397,0,0,-4.348,-4.3509,-4.354,-4.3606,-4.3634,-4.3686,-4.3649,-4.3705,-4.3744,-4.3726,-4.3798,-4.3817,-4.3857,-4.3938,-4.3975,-4.3956,-4.4101,-4.4057,-4.4063,-4.4068,-4.4115,-4.4129,-4.4142,-4.3975,-4.3974,-4.3973,0,0,-4.357,-4.3597,-4.3659,-4.3688,-4.373,-4.3742,-4.3757,-4.3797,-4.3809,-4.3881,-4.387,-4.3916,-4.4,-4.403,-4.4056,-4.416,-4.4148,-4.4175,-4.4227,-4.4275,-4.4287,-4.4297,-4.4336,-4.4349,-4.4183,-4.4183,-4.4183,0,-4.3608,-4.3686,-4.3691,-4.375,-4.378,-4.3767,-4.383,-4.3858,-4.3913,-4.3934,-4.3912,-4.4019,-4.4045,-4.4134,-4.416,-4.4181,-4.4199,-4.417,-4.4285,-4.4295,-4.4305,-4.4342,-4.4356,-4.4186,-4.4186,-4.4186,-4.4185,0,-4.3731,-4.3786,-4.3831,-4.3886,-4.3921,-4.3981,-4.3996,-4.4031,-4.403,-4.4045,-4.412,-4.4151,-4.4205,-4.4226,-4.4225,-4.4316,-4.4303,-4.4283,-4.4243,-4.4323,-4.4357,-4.4371,-4.4191,-4.419,-4.4189,-4.4188,0,0,-4.3842,-4.3901,-4.3917,-4.3943,-4.399,-4.4032,-4.4093,-4.4146,-4.4177,-4.4216,-4.4267,-4.434,-4.4322,-4.4352,-4.4354,-4.4397,-4.4479,-4.4371,-4.4372,-4.4392,-4.4583,-4.4599,-4.4615,-4.4472,-4.4474,-4.4476,-4.458,0,-4.3937,-4.4044,-4.4052,-4.4148,-4.42,-4.4189,-4.4242,-4.4277,-4.4293,-4.4339,-4.4357,-4.4409,-4.4381,-4.4399,-4.444,-4.446,-4.4518,-4.4453,-4.452,-4.4523,-4.4512,-4.4633,-4.4649,-4.4746,-4.4594,-4.4596,-4.4598,0,-4.4062,-4.4106,-4.4208,-4.425,-4.4272,-4.4319,-4.437,-4.4414,-4.4454,-4.4463,-4.4497,-4.4494,-4.4557,-4.4516,-4.4603,-4.4559,-4.4587,-4.4602,-4.4605,-4.4612,-4.4566,-4.4645,-4.4776,-4.4792,-4.4619,-4.4617,-4.4616,0,-4.4134,-4.4219,-4.4292,-4.4314,-4.4364,-4.4398,-4.4421,-4.4458,-4.449,-4.4534,-4.4556,-4.4606,-4.4634,-4.4674,-4.4686,-4.4654,-4.4774,-4.4732,-4.4783,-4.4783,-4.4809,-4.4808,-4.4949,-4.4826,-4.4826,-4.4825,-4.4825,0,-4.424,-4.4303,-4.4326,-4.4371,-4.4442,-4.445,-4.452,-4.4541,-4.4574,-4.4624,-4.4617,-4.4663,-4.4675,-4.4724,-4.4733,-4.4805,-4.4818,-4.4827,-4.4829,-4.4828,-4.4827,-4.4847,-4.4841,-4.4829,-4.4828,-4.4828,-4.4827,0,-4.4333,-4.4351,-4.4429,-4.4471,-4.4483,-4.4534,-4.4569,-4.4613,-4.4629,-4.4691,-4.4706,-4.4731,-4.4788,-4.4804,-4.4871,-4.4878,-4.4964,-4.4958,-4.495,-4.4951,-4.5002,-4.4997,-4.5161,-4.5184,-4.5045,-4.5046,-4.5047,0,-4.44,-4.4449,-4.4496,-4.4529,-4.4553,-4.4606,-4.4639,-4.465,-4.4685,-4.4736,-4.4774,-4.483,-4.4876,-4.4968,-4.4992,-4.5045,-4.5042,-4.5096,-4.505,-4.5048,-4.5045,-4.5042,-4.5048,-4.5105,-4.5106,-4.5107,-4.5108,0,-4.4518,-4.4524,-4.4573,-4.4626,-4.4666,-4.4708,-4.4748,-4.4775,-4.4791,-4.4831,-4.489,-4.4926,-4.4997,-4.5054,-4.5107,-4.513,-4.5123,-4.5123,-4.5138,-4.5138,-4.5132,-4.5138,-4.4976,-4.5119,-4.5118,-4.5117,-4.5117,-4.5116,-4.4601,-4.4644,-4.4685,-4.474,-4.4772,-4.481,-4.4853,-4.4875,-4.4925,-4.4984,-4.4987,-4.5052,-4.5092,-4.5163,-4.519,-4.5241,-4.5225,-4.5246,-4.5251,-4.5257,-4.5262,-4.5123,-4.525,-4.525,-4.525,-4.525,-4.5249,0,-4.4719,-4.4745,-4.4796,-4.4853,-4.4897,-4.4886,-4.493,-4.4968,-4.5025,-4.5063,-4.5109,-4.5178,-4.5234,-4.5263,-4.5319,-4.5354,-4.5352,-4.5368,-4.5366,-4.5372,-4.5272,-4.5255,-4.5369,-4.5369,-4.5369,-4.5369,-4.5369,-4.5369,-4.4786,-4.486,-4.4872,-4.4962,-4.4987,-4.5051,-4.5078,-4.5113,-4.5144,-4.5222,-4.5268,-4.5287,-4.5323,-4.5381,-4.5432,-4.5439,-4.5461,-4.5479,-4.5485,-4.5391,-4.5379,-4.5367,-4.5351,-4.5484,-4.5484,-4.5581,-4.5582,-4.5582]}]]